[[{"header":{"parameterUnit":"m.s-1","parameterCategory":1,"la1":30.2991,"la2":30.254,"lo1":-89.0895,"lo2":-89.0444,"dy":0.0017,"dx":0.0017,"nx":28,"ny":28,"refTime":"2023-09-30T03:00:00:Z","depth":0,"parameterNumber":2,"parameterNumberName":"U-component_of_WINDS"},"data":[0,0,0,0,0,0,0,0,0,0,0,0,0,0,0,0,0,0,0,0,0,0,0,0,0,0,0,0,0,0,0,0,0,0,0,0,0,0,0,0,0,0,0,0,0,0,0,0,0,0,0,0,0,0,0,0,0,0,-4.9736,-4.9736,0,-4.9775,-4.9776,-4.9776,-4.97,-4.9698,-4.9695,-4.9693,-4.9733,-4.9736,-4.9739,0,0,0,0,0,0,0,0,0,0,0,0,0,-4.9594,-4.9597,-4.9735,-4.9736,-4.9736,-4.9775,-4.9776,-4.9776,-4.9701,-4.9698,-4.9695,-4.9692,-4.9732,-4.9736,-4.974,0,0,0,0,0,0,0,0,0,0,0,0,0,-4.9647,-4.9598,-4.9735,-4.9703,-4.9701,-4.9775,-4.9776,-4.9776,-4.9701,-4.9698,-4.9694,-4.969,-4.973,-4.9735,-4.974,-4.9847,0,0,-4.9756,-4.9758,0,0,0,0,0,0,0,0,-4.9644,-4.9652,-4.9708,-4.9706,-4.9703,-4.9729,-4.974,-4.98,-4.9702,-4.9701,-4.9693,-4.9688,-4.9735,-4.9739,-4.9755,-4.9849,-4.9851,-4.9756,-4.9759,-4.9762,-4.9763,0,0,0,0,0,0,0,-4.9641,-4.965,-4.9751,-4.9709,-4.9706,-4.9687,-4.9691,-4.9751,-4.9738,-4.9701,-4.9696,-4.9701,-4.9733,-4.975,-4.9755,-4.9851,-4.9756,-4.9761,-4.9764,-4.9766,-5.0037,-5.0041,0,0,0,0,0,0,-4.9641,-4.9648,-4.975,-4.9752,-4.9664,-4.9693,-4.9697,-4.9724,-4.9738,-4.9736,-4.9705,-4.9698,-4.9743,-4.9749,-4.9756,-4.9884,-4.9762,-4.9766,-4.9769,-5.0033,-5.0038,-5.0043,0,0,0,0,0,0,-4.9638,-4.9651,-4.9748,-4.9699,-4.971,-4.9699,-4.9731,-4.9727,-4.9745,-4.974,-4.9737,-4.9725,-4.974,-4.9749,-4.9826,-4.9884,-4.9769,-4.9773,-5.0028,-5.0035,-5.004,-5.0139,0,0,0,0,0,0,-4.9635,-4.965,-4.9691,-4.97,-4.9713,-4.9817,-4.9735,-4.9731,-4.9754,-4.9745,-4.9759,-4.9757,-4.9738,-4.9818,-4.9831,-4.9889,-4.9777,-5.0023,-5.0031,-5.0038,-5.0131,-5.0148,-5.0163,0,0,0,0,0,-4.963,-4.9716,-4.9693,-4.9706,-4.9763,-4.9821,-4.9828,-4.9804,-4.9759,-4.9799,-4.9797,-4.9757,-4.9875,-4.9827,-4.984,-4.9901,-5.0019,-5.0029,-5.0038,-5.0123,-5.0144,-5.0162,0,0,0,0,0,0,-4.9713,-4.9717,-4.9691,-4.9783,-4.9802,-4.9808,-4.9858,-4.9827,-4.9859,-4.985,-4.9819,-4.9823,-4.9906,-4.9911,-4.9857,-5.0006,-4.994,-4.9952,-5.0,-5.002,-5.0036,-5.0034,-4.9782,0,0,0,0,0,-4.9742,-4.9789,-4.9789,-4.9871,-4.9882,-4.9869,-4.9893,-4.9873,-4.9892,-4.99,-4.9902,-4.9922,-4.9964,-4.9992,-5.003,-5.013,-5.0133,-5.0179,-5.0195,-5.0208,-5.022,-5.0275,-5.0296,-5.0073,-5.0073,-5.0073,0,0,-4.9803,-4.981,-4.9842,-4.9888,-4.99,-4.995,-4.9876,-4.9931,-4.9968,-4.9908,-4.9981,-4.9984,-5.0004,-5.0094,-5.0133,-5.01,-5.0282,-5.022,-5.0231,-5.0235,-5.0287,-5.0308,-5.0327,-5.008,-5.0079,-5.0078,0,0,-4.9939,-4.9949,-5.0019,-5.0033,-5.0053,-5.0044,-5.0061,-5.0072,-5.0072,-5.0145,-5.0102,-5.0145,-5.0217,-5.0234,-5.0252,-5.0396,-5.0361,-5.0409,-5.0494,-5.0548,-5.0566,-5.0582,-5.0635,-5.0655,-5.042,-5.0421,-5.0421,0,-5.0011,-5.0085,-5.0058,-5.0118,-5.014,-5.0088,-5.0159,-5.0174,-5.0206,-5.0223,-5.0185,-5.0276,-5.0285,-5.0379,-5.0415,-5.043,-5.045,-5.0408,-5.0566,-5.0581,-5.0595,-5.0646,-5.0666,-5.0426,-5.0426,-5.0425,-5.0425,0,-5.0174,-5.0226,-5.028,-5.0313,-5.0341,-5.0406,-5.039,-5.0421,-5.0399,-5.0395,-5.0471,-5.048,-5.0521,-5.0541,-5.052,-5.0633,-5.0612,-5.0571,-5.0504,-5.0623,-5.067,-5.0689,-5.0435,-5.0433,-5.0431,-5.043,0,0,-5.0364,-5.0383,-5.0403,-5.0419,-5.0438,-5.0478,-5.054,-5.058,-5.0609,-5.0633,-5.0686,-5.0749,-5.0711,-5.0732,-5.0712,-5.076,-5.0877,-5.0712,-5.0712,-5.0744,-5.1004,-5.1037,-5.106,-5.0853,-5.0856,-5.0859,-5.1003,0,-5.0501,-5.061,-5.0589,-5.0695,-5.0744,-5.0696,-5.0751,-5.0769,-5.0767,-5.0808,-5.0804,-5.0851,-5.0796,-5.0809,-5.0854,-5.0853,-5.0929,-5.0842,-5.0903,-5.0906,-5.0902,-5.1084,-5.1118,-5.1254,-5.1021,-5.1024,-5.1027,0,-5.0675,-5.0707,-5.0819,-5.0833,-5.0852,-5.0902,-5.0938,-5.0977,-5.0998,-5.0992,-5.1017,-5.0988,-5.1051,-5.0983,-5.1071,-5.1013,-5.1036,-5.104,-5.1044,-5.105,-5.0975,-5.1097,-5.1296,-5.1317,-5.1055,-5.1053,-5.1051,0,-5.0805,-5.0876,-5.0952,-5.0967,-5.0984,-5.1021,-5.1029,-5.1046,-5.1072,-5.1103,-5.112,-5.1158,-5.1179,-5.121,-5.1193,-5.1144,-5.1285,-5.1214,-5.1284,-5.1284,-5.1316,-5.1315,-5.1524,-5.1329,-5.1328,-5.1328,-5.1328,0,-5.0961,-5.1032,-5.1011,-5.1059,-5.1138,-5.1112,-5.1191,-5.1194,-5.1209,-5.1257,-5.1217,-5.1263,-5.1237,-5.1281,-5.1268,-5.1344,-5.1353,-5.1352,-5.1348,-5.1356,-5.1357,-5.1373,-5.1364,-5.1333,-5.1332,-5.1331,-5.133,0,-5.112,-5.1109,-5.119,-5.12,-5.1204,-5.1262,-5.1271,-5.1315,-5.131,-5.1371,-5.1384,-5.1376,-5.1426,-5.1412,-5.1465,-5.1457,-5.1554,-5.1537,-5.1547,-5.1544,-5.1615,-5.1609,-5.1843,-5.1873,-5.1657,-5.1659,-5.166,0,-5.1221,-5.1275,-5.1292,-5.1321,-5.1334,-5.1381,-5.1408,-5.1385,-5.1415,-5.1443,-5.1485,-5.1531,-5.1567,-5.1649,-5.1648,-5.169,-5.1675,-5.1754,-5.1681,-5.1689,-5.1679,-5.1676,-5.1683,-5.1769,-5.1771,-5.1773,-5.1775,0,-5.1403,-5.1396,-5.1436,-5.1476,-5.1509,-5.1539,-5.1565,-5.1591,-5.157,-5.1606,-5.1657,-5.1685,-5.1741,-5.1788,-5.1826,-5.1835,-5.1803,-5.1798,-5.1817,-5.1827,-5.1832,-5.1832,-5.1589,-5.1793,-5.1791,-5.179,-5.1789,-5.1788,-5.1538,-5.1585,-5.1604,-5.1651,-5.1669,-5.1694,-5.1738,-5.1738,-5.178,-5.1825,-5.1808,-5.1867,-5.1887,-5.1935,-5.195,-5.1996,-5.1966,-5.1992,-5.1999,-5.2007,-5.2017,-5.1823,-5.2002,-5.2002,-5.2001,-5.2001,-5.2,0,-5.172,-5.173,-5.1774,-5.1812,-5.185,-5.1816,-5.1843,-5.1877,-5.193,-5.1951,-5.1988,-5.2047,-5.2093,-5.2097,-5.214,-5.2177,-5.2163,-5.2189,-5.2187,-5.219,-5.204,-5.202,-5.22,-5.22,-5.22,-5.22,-5.2199,-5.2199,-5.1819,-5.1897,-5.1891,-5.1978,-5.1987,-5.2046,-5.2065,-5.2089,-5.2106,-5.2174,-5.2213,-5.2215,-5.223,-5.2274,-5.2315,-5.2315,-5.2334,-5.2366,-5.2361,-5.222,-5.2201,-5.2182,-5.2163,-5.237,-5.237,-5.2507,-5.2509,-5.251]},{"header":{"parameterUnit":"m.s-1","parameterCategory":1,"la1":30.2991,"la2":30.254,"lo1":-89.0895,"lo2":-89.0444,"dy":0.0017,"dx":0.0017,"nx":28,"ny":28,"refTime":"2023-09-30T03:00:00:Z","depth":0,"parameterNumber":3,"parameterNumberName":"V-component_of_WINDS"},"data":[0,0,0,0,0,0,0,0,0,0,0,0,0,0,0,0,0,0,0,0,0,0,0,0,0,0,0,0,0,0,0,0,0,0,0,0,0,0,0,0,0,0,0,0,0,0,0,0,0,0,0,0,0,0,0,0,0,0,-1.9013,-1.9013,0,-1.9022,-1.9022,-1.9022,-1.8978,-1.8976,-1.8975,-1.8974,-1.8983,-1.8985,-1.8986,0,0,0,0,0,0,0,0,0,0,0,0,0,-1.8958,-1.896,-1.9013,-1.9013,-1.9013,-1.9022,-1.9022,-1.9022,-1.8978,-1.8976,-1.8975,-1.8973,-1.8983,-1.8985,-1.8986,0,0,0,0,0,0,0,0,0,0,0,0,0,-1.8976,-1.896,-1.9013,-1.8992,-1.8991,-1.9022,-1.9022,-1.9022,-1.8978,-1.8976,-1.8974,-1.8973,-1.8982,-1.8985,-1.8987,-1.9039,0,0,-1.8993,-1.8994,0,0,0,0,0,0,0,0,-1.8975,-1.8978,-1.8995,-1.8994,-1.8992,-1.8997,-1.9006,-1.9028,-1.8979,-1.8983,-1.8974,-1.8972,-1.8989,-1.8991,-1.8997,-1.9039,-1.9039,-1.8994,-1.8995,-1.8996,-1.8996,0,0,0,0,0,0,0,-1.8974,-1.8978,-1.9017,-1.8996,-1.8994,-1.8983,-1.8983,-1.901,-1.8997,-1.8982,-1.8979,-1.8981,-1.8988,-1.8995,-1.8997,-1.904,-1.8993,-1.8995,-1.8997,-1.8998,-1.9124,-1.9126,0,0,0,0,0,0,-1.8976,-1.8977,-1.9016,-1.9017,-1.8979,-1.8985,-1.8986,-1.8997,-1.8996,-1.8995,-1.8982,-1.8979,-1.8992,-1.8994,-1.8997,-1.9057,-1.8996,-1.8998,-1.8999,-1.9122,-1.9124,-1.9126,0,0,0,0,0,0,-1.8975,-1.898,-1.9016,-1.8996,-1.9,-1.8988,-1.9001,-1.8998,-1.9005,-1.8996,-1.8994,-1.8992,-1.8991,-1.8994,-1.9028,-1.9057,-1.8999,-1.9001,-1.9119,-1.9123,-1.9125,-1.9179,0,0,0,0,0,0,-1.8973,-1.8979,-1.8999,-1.8997,-1.9001,-1.9048,-1.9003,-1.9,-1.9009,-1.9004,-1.9004,-1.9003,-1.8989,-1.9025,-1.903,-1.9059,-1.9002,-1.9117,-1.9121,-1.9124,-1.9174,-1.9183,-1.9191,0,0,0,0,0,-1.8971,-1.9014,-1.9,-1.9005,-1.9025,-1.9049,-1.9052,-1.9035,-1.9011,-1.9031,-1.9025,-1.9003,-1.9053,-1.9029,-1.9035,-1.9064,-1.9115,-1.912,-1.9124,-1.9171,-1.9181,-1.919,0,0,0,0,0,0,-1.9021,-1.9014,-1.8998,-1.9041,-1.9046,-1.9042,-1.9066,-1.9047,-1.9059,-1.9054,-1.9034,-1.9034,-1.9072,-1.9071,-1.9045,-1.9114,-1.908,-1.9086,-1.9113,-1.9123,-1.9131,-1.9131,-1.9004,0,0,0,0,0,-1.9037,-1.9057,-1.9049,-1.9088,-1.9091,-1.9078,-1.9088,-1.9075,-1.9079,-1.9081,-1.9078,-1.9083,-1.91,-1.9111,-1.9126,-1.9174,-1.9173,-1.9196,-1.9205,-1.9211,-1.9217,-1.9241,-1.9252,-1.9142,-1.9142,-1.9141,0,0,-1.907,-1.9068,-1.9082,-1.9098,-1.91,-1.9121,-1.908,-1.9104,-1.912,-1.9085,-1.9117,-1.9115,-1.9119,-1.916,-1.9178,-1.9161,-1.9247,-1.9217,-1.9223,-1.9225,-1.9247,-1.9258,-1.9267,-1.9145,-1.9144,-1.9144,0,0,-1.9141,-1.9142,-1.9174,-1.9177,-1.918,-1.9171,-1.9179,-1.9177,-1.9174,-1.9206,-1.918,-1.9198,-1.9227,-1.9231,-1.9237,-1.9308,-1.9288,-1.9314,-1.9357,-1.9381,-1.939,-1.9397,-1.9423,-1.9432,-1.9319,-1.9319,-1.9319,0,-1.9182,-1.9212,-1.9193,-1.9219,-1.9226,-1.9195,-1.9227,-1.923,-1.9239,-1.9245,-1.9225,-1.9261,-1.9262,-1.9303,-1.932,-1.9326,-1.9334,-1.9314,-1.939,-1.9398,-1.9404,-1.9428,-1.9438,-1.9322,-1.9322,-1.9322,-1.9321,0,-1.9262,-1.9284,-1.9309,-1.9318,-1.9328,-1.9357,-1.9342,-1.9354,-1.934,-1.9333,-1.9366,-1.9365,-1.9379,-1.9388,-1.9374,-1.9427,-1.9416,-1.9394,-1.9359,-1.9418,-1.944,-1.945,-1.9327,-1.9326,-1.9325,-1.9324,0,0,-1.9366,-1.9362,-1.9372,-1.9375,-1.9376,-1.9392,-1.942,-1.9433,-1.9444,-1.9451,-1.9473,-1.9498,-1.9477,-1.9483,-1.947,-1.9491,-1.9547,-1.9466,-1.9465,-1.9481,-1.9605,-1.9622,-1.9633,-1.9533,-1.9535,-1.9536,-1.9605,0,-1.9436,-1.9482,-1.9465,-1.9512,-1.9531,-1.9501,-1.9525,-1.9528,-1.9522,-1.9537,-1.953,-1.9548,-1.9519,-1.9523,-1.9542,-1.9536,-1.9572,-1.9531,-1.9554,-1.9555,-1.9554,-1.9645,-1.9663,-1.9728,-1.9613,-1.9615,-1.9616,0,-1.9524,-1.9533,-1.9582,-1.9579,-1.9586,-1.9608,-1.9618,-1.9633,-1.9636,-1.963,-1.9637,-1.9618,-1.9645,-1.9609,-1.9645,-1.9618,-1.9626,-1.9624,-1.9626,-1.9628,-1.959,-1.965,-1.9748,-1.9758,-1.9629,-1.9628,-1.9627,0,-1.9595,-1.9619,-1.9652,-1.9655,-1.9652,-1.9668,-1.9668,-1.9668,-1.9677,-1.9686,-1.9691,-1.9704,-1.971,-1.972,-1.9705,-1.9681,-1.9743,-1.9707,-1.9739,-1.974,-1.9754,-1.9754,-1.9856,-1.9759,-1.9759,-1.9759,-1.9758,0,-1.9674,-1.9706,-1.9684,-1.9704,-1.9738,-1.9717,-1.9751,-1.9747,-1.9748,-1.9767,-1.9741,-1.9759,-1.9738,-1.9754,-1.9743,-1.9774,-1.9777,-1.9773,-1.977,-1.9776,-1.9776,-1.9781,-1.9777,-1.9761,-1.9761,-1.976,-1.976,0,-1.976,-1.9746,-1.9779,-1.9773,-1.9773,-1.9798,-1.9793,-1.9811,-1.9802,-1.9826,-1.9831,-1.9818,-1.9835,-1.9821,-1.9838,-1.983,-1.9872,-1.9862,-1.9871,-1.9869,-1.9902,-1.9899,-2.0011,-2.0025,-1.9919,-1.992,-1.9921,0,-1.9812,-1.9835,-1.9831,-1.9842,-1.9843,-1.986,-1.9868,-1.9849,-1.9859,-1.9863,-1.9881,-1.9896,-1.9907,-1.9936,-1.9928,-1.9941,-1.9932,-1.997,-1.9934,-1.9939,-1.9932,-1.9931,-1.9934,-1.9978,-1.9979,-1.998,-1.9981,0,-1.9906,-1.9898,-1.9911,-1.9922,-1.9932,-1.994,-1.9946,-1.9956,-1.9935,-1.9948,-1.9965,-1.9974,-1.9991,-2.0006,-2.0016,-2.0015,-1.9995,-1.9992,-2.0,-2.0007,-2.0011,-2.001,-1.9892,-1.999,-1.9989,-1.9988,-1.9988,-1.9988,-1.9976,-1.9995,-1.9995,-2.0011,-2.0013,-2.0018,-2.0035,-2.0028,-2.0042,-2.0054,-2.0041,-2.0062,-2.0063,-2.0075,-2.0076,-2.0092,-2.0076,-2.0088,-2.0091,-2.0095,-2.01,-2.0008,-2.0094,-2.0094,-2.0094,-2.0093,-2.0093,0,-2.0069,-2.0067,-2.0082,-2.009,-2.0102,-2.008,-2.0085,-2.0097,-2.0115,-2.0118,-2.0129,-2.0148,-2.0163,-2.0156,-2.0168,-2.0182,-2.0173,-2.0186,-2.0185,-2.0186,-2.0113,-2.0105,-2.0194,-2.0194,-2.0194,-2.0194,-2.0194,-2.0193,-2.0119,-2.015,-2.0141,-2.0173,-2.017,-2.019,-2.0195,-2.02,-2.0202,-2.0224,-2.0236,-2.0231,-2.023,-2.0242,-2.0254,-2.0251,-2.0257,-2.0274,-2.0268,-2.0201,-2.0191,-2.0181,-2.0174,-2.0275,-2.0275,-2.0339,-2.034,-2.034]}]]